Satellite-Ground Cal/Val Site Overpasses Predictions

Prediction of Satellite NPP Overpassing Cal/Val Site: Antarctic Dome C

Ground Cal/Val Site Location: Latitude: -75.10, Longitude: 123.35; Satellite-Ground Site NADIR distance within 100 km.

Table of predicted overpasses for the next 14.0 days since TLE Epoch: 6/28/2014
Interval Starting Time Ending Time Minimum Distance Time Minimum Distance (km)
1 06/30/2014 15:01:46 06/30/2014 15:02:14 06/30/2014 15:02:00 29.16
2 07/01/2014 14:43:03 07/01/2014 14:43:21 07/01/2014 14:43:12 77.94
3 07/02/2014 07:44:37 07/02/2014 07:45:05 07/02/2014 07:44:51 30.56
4 07/03/2014 07:25:54 07/03/2014 07:26:12 07/03/2014 07:26:03 79.42
5 07/05/2014 15:08:11 07/05/2014 15:08:33 07/05/2014 15:08:22 65.96
6 07/06/2014 14:49:20 07/06/2014 14:49:46 07/06/2014 14:49:33 43.30
7 07/07/2014 07:51:02 07/07/2014 07:51:23 07/07/2014 07:51:13 65.54
8 07/08/2014 07:32:11 07/08/2014 07:32:38 07/08/2014 07:32:25 42.46
9 07/11/2014 14:55:39 07/11/2014 14:56:09 07/11/2014 14:55:54 7.94


NCC Satellite Cal/Val Overpasses Prediction Service
